User: anonymous   Login
Location: Albuquerque Trailhead
(34.7934°N, 106.3736°W)
Time: 11:28:06
(UTC+00:00)
Language:

Aureole 1 Rocket - Orbit

View from above orbital plane
View from above orbital plane
View from above satellite
View from above satellite

Ground track
Ground track

The orbit data is extracted from the following two-line orbital elements,

1  5730U 71119B   21260.11691474  .00001158  00000-0  75856-4 0  9998
2  5730  73.8899 264.9319 0684501 200.5011 156.7401 14.05651857423575
Epoch (UTC): 17 September 2021 02:48:21
Eccentricity: 0.0684501
inclination: 73.8899°
perigee height: 378 km
apogee height: 1371 km
right ascension of ascending node: 264.9319°
argument of perigee: 200.5011°
revolutions per day: 14.05651857
mean anomaly at epoch: 156.7401°
orbit number at epoch: 42357

The dashed part of the orbit path shows where the satellite is in the earth's shadow,  

DLR